Flag for Estonia Weather past 2 weeks in Tallinn, Estonia

Now
37 °F

Snow flurries. Partly sunny.


Feels Like: 28 °F
Forecast: 31 / 35 °F
Wind: 15 mph from Southwest

Location: Tallinn

Current Time: Mar 4, 2015 at 3:31:26 PM

Latest Report: Mar 4, 2015 at 2:50 PM


Visibility: 5 mi

Pressure: 29.80 "Hg

Humidity: 87%

Dew point: 34 °F

Location of TallinnLocation

Historic Weather in Tallinn — Graph

°F

Tallinn temperature yesterday

Maximum temperature yesterday: 39 °F (at 12:50 PM)
Minimum temperature yesterday: 34 °F (at 7:20 PM)
Average temperature yesterday: 36 °F

Past Weeks' High & Low Weather Summary

 TemperatureHumidityPressure
High43 °F (Feb 25, 12:50 PM)100% (Feb 18, 5:20 AM)30.45 "Hg (Feb 18, 5:20 AM)
Low27 °F (Feb 17, 6:50 PM)37% (Feb 17, 2:50 PM)29.24 "Hg (Feb 22, 7:50 AM)
Average35 °F90%29.77 "Hg
* Reported Feb 17 2:20 PM — Mar 4 2:20 PM, Tallinn, Weather by CustomWeather, © 2015

Note: Actual official high and low records may vary slightly from our data, if they occured in-between our weather recording intervals... More about our weather records

Advertising

Tallinn weather history for previous 24 hours

 ConditionsComfort  
Time TempWeatherWind HumidityBarometerVisibility
2:20 PM
Wed, Mar 4
37 °FPartly sunny.15 mph87%29.80 "HgN/A
1:50 PM37 °FBroken clouds.14 mph87%29.77 "HgN/A
1:20 PM37 °FPartly sunny.14 mph87%29.77 "HgN/A
12:50 PM36 °FBroken clouds.13 mph93%29.74 "HgN/A
12:20 PM37 °FLight rain. Mostly cloudy.13 mph87%29.74 "Hg6 mi
11:50 AM37 °FMostly cloudy.13 mph87%29.71 "HgN/A
11:20 AM36 °FLight rain. Mostly cloudy.14 mph93%29.71 "HgN/A
10:50 AM36 °FLight rain. Low clouds.12 mph93%29.68 "Hg6 mi
10:20 AM36 °FSprinkles. Partly sunny.12 mph93%29.68 "Hg4 mi
9:50 AM36 °FLow clouds.12 mph93%29.68 "HgN/A
9:20 AM34 °FRain. Low clouds.10 mph100%29.65 "Hg4 mi
8:50 AM34 °FLight rain. Low clouds.12 mph100%29.65 "Hg4 mi
8:20 AM34 °FLight rain. Low clouds.13 mph93%29.62 "Hg5 mi
7:50 AM34 °FLight rain. Low clouds.12 mph93%29.62 "Hg6 mi
7:20 AM34 °FLight snow. Low clouds.12 mph93%29.59 "Hg4 mi
6:50 AM34 °FSnow. Low clouds.12 mph93%29.59 "Hg3 mi
6:20 AM34 °FSnow. Low clouds.13 mph93%29.56 "Hg3 mi
5:50 AM34 °FSnow. Low clouds.12 mph93%29.56 "Hg2 mi
5:20 AM34 °FSnow. Low clouds.13 mph93%29.56 "Hg2 mi
4:50 AM34 °FLight rain. Low clouds.12 mph93%29.53 "Hg4 mi
4:20 AM34 °FDrizzle. Low clouds.12 mph93%29.53 "Hg5 mi
3:50 AM34 °FDrizzle. Low clouds.12 mph100%29.53 "HgN/A
3:20 AM34 °FLight rain. Low clouds.12 mph100%29.50 "HgN/A
2:50 AM34 °FLight rain. Low clouds.12 mph100%29.50 "HgN/A
2:20 AM34 °FLight rain. Low clouds.12 mph100%29.50 "HgN/A
1:50 AM34 °FLight rain. Low clouds.12 mph100%29.47 "HgN/A
1:20 AM34 °FLight rain. Low clouds.10 mph100%29.47 "HgN/A
12:50 AM34 °FLight rain. Low clouds.10 mph100%29.47 "Hg5 mi
12:20 AM34 °FLight rain. Low clouds.10 mph100%29.47 "Hg5 mi
11:50 PM
Tue, Mar 3
34 °FLight rain. Low clouds.10 mph100%29.45 "HgN/A
11:20 PM34 °FLight snow. Low clouds.8 mph93%29.45 "HgN/A
10:50 PM34 °FLight snow. Low clouds.8 mph93%29.45 "HgN/A
10:20 PM34 °FLight snow. Low clouds.8 mph93%29.42 "Hg4 mi
9:50 PM34 °FLight snow. Low clouds.8 mph93%29.42 "Hg5 mi
9:20 PM34 °FLight snow. Low clouds.8 mph93%29.42 "Hg5 mi
8:50 PM34 °FSnow. Low clouds.8 mph93%29.42 "Hg3 mi
8:20 PM34 °FLight snow. Low clouds.9 mph93%29.42 "Hg6 mi
7:50 PM34 °FLight snow. Low clouds.9 mph93%29.42 "HgN/A
7:20 PM34 °FLight snow. Low clouds.10 mph100%29.42 "HgN/A
6:50 PM36 °FLight rain. Mostly cloudy.12 mph93%29.39 "HgN/A
6:20 PM36 °FPassing clouds.9 mph93%29.39 "HgN/A
5:50 PM36 °FBroken clouds.8 mph93%29.39 "HgN/A
5:20 PM36 °FSleet. Broken clouds.10 mph93%29.39 "Hg5 mi
4:50 PM37 °FLight rain. Partly sunny.10 mph93%29.39 "HgN/A
4:20 PM37 °FMostly cloudy.10 mph93%29.39 "HgN/A
3:50 PM37 °FSprinkles. Mostly cloudy.9 mph93%29.39 "HgN/A
3:20 PM37 °FOvercast.10 mph93%29.39 "HgN/A
Weather by CustomWeather, © 2015

See weather overviewHow to use our weather pages